Location: Forst
(46.9333°N, 15.4333°E)
Time: 21:33:18
(UTC+00:00)

Lacrosse 5 rocket - Visible Passes

Search period start: 16 April 2021 00:00
Search period end: 26 April 2021 00:00
Orbit: 463 x 631 km, 57.0° (Epoch: 15 April)

Date Brightness Start Highest point End Pass type
(mag) Time Alt. Az. Time Alt. Az. Time Alt. Az.
16 Apr 3.5 19:40:34 10° WNW 19:44:07 27° NNW 19:47:50 10° NE visible
16 Apr 3.7 21:21:01 10° NW 21:24:24 22° N 21:26:18 17° NE visible
16 Apr 3.8 23:00:17 10° NW 23:01:54 21° NNW 23:01:54 21° NNW visible
17 Apr 3.6 19:34:46 10° WNW 19:38:13 25° NNW 19:41:49 10° NE visible
17 Apr 3.6 21:15:04 10° NW 21:18:31 23° N 21:20:15 18° NE visible
17 Apr 3.7 22:54:14 10° NW 22:55:51 21° NW 22:55:51 21° NW visible
18 Apr 3.6 19:28:58 10° WNW 19:32:20 23° N 19:35:50 10° NE visible
18 Apr 3.5 21:09:06 10° NW 21:12:38 24° NNE 21:14:12 20° NE visible
18 Apr 3.7 22:48:10 10° NW 22:49:48 22° NW 22:49:48 22° NW visible
19 Apr 3.7 19:23:10 10° WNW 19:26:27 22° N 19:29:53 10° NE visible
19 Apr 3.4 21:03:06 10° NW 21:06:45 26° NNE 21:08:08 22° NE visible
19 Apr 3.6 22:42:07 10° NW 22:43:44 22° NW 22:43:44 22° NW visible
20 Apr 3.7 19:17:20 10° NW 19:20:35 21° N 19:23:56 10° NE visible
20 Apr 3.2 20:57:05 10° NW 21:00:50 28° NNE 21:02:05 24° NE visible
20 Apr 3.6 22:36:04 10° NW 22:37:41 22° NW 22:37:41 22° NW visible
21 Apr 3.7 19:11:29 10° NW 19:14:42 21° N 19:18:03 10° NE visible
21 Apr 3.0 20:51:03 10° NW 20:54:55 31° NNE 20:56:03 27° NE visible
21 Apr 3.6 22:30:02 10° NW 22:31:38 22° NW 22:31:38 22° NW visible
22 Apr 3.6 19:05:36 10° NW 19:08:49 21° N 19:12:10 10° NE visible
22 Apr 2.7 20:45:00 10° NW 20:48:58 35° NNE 20:50:01 30° NE visible
22 Apr 3.6 22:24:01 10° WNW 22:25:37 22° WNW 22:25:37 22° WNW visible
23 Apr 3.6 18:59:41 10° NW 19:02:57 21° N 19:06:20 10° ENE visible
23 Apr 2.5 20:38:56 10° NW 20:43:01 40° NNE 20:44:00 35° ENE visible
23 Apr 3.6 22:18:02 10° WNW 22:19:36 21° WNW 22:19:36 21° WNW visible
24 Apr 3.5 18:53:44 10° NW 18:57:03 22° N 19:00:30 10° ENE visible
24 Apr 2.2 20:32:52 10° NW 20:37:02 46° NNE 20:38:00 39° ENE visible
24 Apr 3.6 22:12:05 10° WNW 22:13:36 20° WNW 22:13:36 20° WNW visible
25 Apr 3.3 18:47:45 10° NW 18:51:10 23° NNE 18:54:42 10° ENE visible
25 Apr 1.9 20:26:47 10° NW 20:31:02 55° NNE 20:32:02 44° E visible
25 Apr 3.7 22:06:11 10° WNW 22:07:38 18° W 22:07:38 18° W visible
